Santa Ana, CA

2:57 AM PDT on September 23, 2017 (GMT -0700)
John Wayne-Orange County

Weather History for KSNA - March, 2013

Change the Weather History Date:

Sunday, March 31, 2013

  Actual Average Record
Temperature  
Mean Temperature 62 °F 60 °F  
Max Temperature 68 °F 68 °F 83 °F (2000)
Min Temperature 56 °F 53 °F 48 °F (2007)
Degree Days  
Heating Degree Days 3 5  
Month to date heating degree days 154 179  
Since 1 July heating degree days 1020 1087  
Cooling Degree Days 0 0  
Month to date cooling degree days 4 7  
Year to date cooling degree days 4 15  
Growing Degree Days 10 (Base 50)    
Moisture  
Dew Point 52 °F    
Average Humidity 75    
Maximum Humidity 86    
Minimum Humidity 63    
Precipitation  
Precipitation 0.00 in 0.02 in 0.05 in (2006)
Month to date precipitation 0.06 1.90  
Year to date precipitation 1.67 7.76  
Since 1 July precipitation 4.69  
Sea Level Pressure  
Sea Level Pressure 30.11 in    
Wind  
Wind Speed 7 mph (SW)    
Max Wind Speed 17 mph    
Max Gust Speed 22 mph    
Visibility 10 miles    
Events Rain    
T = Trace of Precipitation, MM = Missing Value Source: NWS Daily Summary

Daily Weather History Graph

Daily Weather History Graph

Search for Another Location

Airport or City:

Trip Planner

Search our weather history database for the weather conditions in past years. The results will help you decide how hot, cold, wet, or windy it might be!

Date:

Astronomy

Mar. 31, 2013 Rise Set
Actual Time 6:39 AM PDT 7:11 PM PDT
Civil Twilight 6:14 AM PDT 7:36 PM PDT
Nautical Twilight 5:45 AM PDT 8:06 PM PDT
Astronomical Twilight 5:15 AM PDT 8:36 PM PDT
Moon No Moon Rise 9:44 AM PDT (3/31)
Length of Visible Light 13h 21m
Length of Day
12h 31m
Waning Gibbous, 76% of the Moon is Illuminated
Mar 31
Waning Gibbous
Apr 2
Last Quarter
Apr 10
New
Apr 18
First Quarter
Apr 25
Full

Hourly Weather History & Observations

Time (PDT) Temp. Dew Point Humidity Pressure Visibility Wind Dir Wind Speed Gust Speed Precip Events Conditions
12:53 AM 57.0 °F 52.0 °F 83% 30.12 in 10.0 mi Calm Calm - N/A   Clear
1:53 AM 57.0 °F 53.1 °F 87% 30.13 in 10.0 mi Calm Calm - N/A   Mostly Cloudy
2:33 AM 57.2 °F 51.8 °F 82% 30.11 in 10.0 mi Calm Calm - N/A   Overcast
2:53 AM 57.0 °F 52.0 °F 83% 30.11 in 10.0 mi SE 4.6 mph - N/A   Mostly Cloudy
3:39 AM 57.2 °F 51.8 °F 82% 30.10 in 10.0 mi Calm Calm - N/A   Overcast
3:53 AM 57.0 °F 52.0 °F 83% 30.10 in 10.0 mi Calm Calm - N/A   Overcast
4:53 AM 55.9 °F 51.1 °F 84% 30.09 in 10.0 mi East 4.6 mph - N/A   Scattered Clouds
5:35 AM 57.2 °F 51.8 °F 82% 30.10 in 10.0 mi Calm Calm - N/A   Mostly Cloudy
5:53 AM 55.9 °F 51.1 °F 84% 30.10 in 10.0 mi East 3.5 mph - N/A   Scattered Clouds
6:53 AM 57.0 °F 51.1 °F 81% 30.11 in 9.0 mi East 5.8 mph - N/A   Mostly Cloudy
7:53 AM 57.9 °F 50.0 °F 75% 30.12 in 10.0 mi ESE 4.6 mph - N/A   Overcast
8:33 AM 60.8 °F 51.8 °F 72% 30.11 in 10.0 mi SE 5.8 mph - N/A   Mostly Cloudy
8:53 AM 62.1 °F 51.1 °F 67% 30.12 in 10.0 mi SE 4.6 mph - N/A   Scattered Clouds
9:53 AM 64.9 °F 53.1 °F 65% 30.12 in 10.0 mi SSW 11.5 mph - N/A   Mostly Cloudy
10:02 AM 62.6 °F 51.8 °F 68% 30.13 in 10.0 mi SSW 10.4 mph - N/A   Mostly Cloudy
10:24 AM 64.4 °F 51.8 °F 64% 30.13 in 10.0 mi SSW 6.9 mph - N/A   Mostly Cloudy
10:53 AM 64.9 °F 53.1 °F 65% 30.13 in 10.0 mi SSW 6.9 mph - N/A   Mostly Cloudy
11:53 AM 64.9 °F 53.1 °F 65% 30.14 in 10.0 mi SSW 9.2 mph - N/A   Mostly Cloudy
12:53 PM 66.9 °F 53.1 °F 61% 30.12 in 10.0 mi SW 11.5 mph - N/A   Mostly Cloudy
1:53 PM 66.9 °F 54.0 °F 63% 30.10 in 10.0 mi SSW 15.0 mph - N/A   Scattered Clouds
2:53 PM 66.9 °F 55.0 °F 66% 30.08 in 10.0 mi SSW 13.8 mph - N/A   Scattered Clouds
3:53 PM 66.9 °F 53.1 °F 61% 30.08 in 10.0 mi SW 12.7 mph 19.6 mph N/A   Scattered Clouds
4:17 PM 64.4 °F 53.6 °F 68% 30.08 in 10.0 mi SSW 17.3 mph 21.9 mph N/A   Mostly Cloudy
5:53 PM 63.0 °F 55.0 °F 75% 30.06 in 10.0 mi SW 10.4 mph - N/A   Overcast
6:24 PM 60.8 °F 55.4 °F 82% 30.07 in 10.0 mi WSW 6.9 mph - 0.00 in Rain Light Rain
6:42 PM 62.6 °F 53.6 °F 72% 30.07 in 10.0 mi SW 5.8 mph - 0.00 in   Mostly Cloudy
6:53 PM 62.1 °F 53.1 °F 72% 30.07 in 10.0 mi WSW 5.8 mph - 0.00 in   Mostly Cloudy
7:53 PM 60.1 °F 53.1 °F 78% 30.08 in 10.0 mi West 6.9 mph - N/A   Mostly Cloudy
8:49 PM 59.0 °F 53.6 °F 82% 30.10 in 10.0 mi West 6.9 mph - N/A   Mostly Cloudy
8:53 PM 59.0 °F 53.1 °F 81% 30.10 in 10.0 mi Variable 5.8 mph - N/A   Mostly Cloudy
9:53 PM 57.9 °F 52.0 °F 81% 30.12 in 10.0 mi WNW 5.8 mph - N/A   Overcast
10:16 PM 57.2 °F 51.8 °F 82% 30.12 in 10.0 mi WSW 5.8 mph - N/A   Mostly Cloudy
10:26 PM 57.2 °F 51.8 °F 82% 30.13 in 10.0 mi West 6.9 mph - N/A   Mostly Cloudy
10:58 PM 57.2 °F 51.8 °F 82% 30.13 in 10.0 mi West 4.6 mph - N/A   Overcast
11:33 PM 57.2 °F 51.8 °F 82% 30.12 in 10.0 mi WSW 3.5 mph - N/A   Overcast
11:43 PM 57.2 °F 51.8 °F 82% 30.12 in 10.0 mi West 4.6 mph - N/A   Mostly Cloudy
11:53 PM 55.9 °F 51.1 °F 84% 30.12 in 10.0 mi WSW 3.5 mph - N/A   Mostly Cloudy
11:59 PM 55.4 °F 51.8 °F 88% 30.12 in 10.0 mi WSW 4.6 mph - N/A   Scattered Clouds